sat.trackr.live / text

‹ back to catalog

KUIPER-00597

NORAD 69282 · 2026-118R

PAYLOAD ACTIVE UNKNOWN

§ Identity

Operator
Country
US
Launch date
2026-05-29
Launch site
AFETR
Launch vehicle
Mass (kg)
RCS (m²)

External: N2YO · Heavens-Above · Gunter

§ Orbital elements

Epoch: 2026-09-20T04:28:05.200320Z

Period
97.30 min
Inclination
51.8987°
Eccentricity
0.0001991
Mean motion
14.79935183 rev/d
Perigee alt
628.1 km
Apogee alt
630.9 km
Semi-major
7,007.7 km
B*
5.5118e-4
RAAN
325.5834°
Arg perigee
49.3525°
Mean anomaly
310.7610°
Rev number
1,843

§ Raw data

KUIPER-005971 69282U 26118R   26263.18617130  .00003983  00000+0  55118-3 0  99962 69282  51.8987 325.5834 0001991  49.3525 310.7610 14.79935183 18439

JSON: /api/v1/satellites/69282 · /tle

For live sub-satellite position, see the globe view (requires WebGL).

§ Visibility from observer

Set your observer location to see the next 7 days of passes ≥ 10°. The values pass through the URL so the page stays shareable.

No JS? Fill the form by hand. The geolocation button needs JavaScript.